Location: Houhaj�rvi
(61.2833°N, 23.0000°E)
Time: 03:52:57
(UTC+00:00)

Cosmos 1844 Rocket - Pass Details

Date: 27 February 2020
Orbit: 823 x 846 km, 71.0° (Epoch: 02 April)

Event Time Altitude Azimuth Distance (km) Brightness Sun altitude
Rises 17:01:31 0° 281° (W) 3,391 7.9 -9.8°
Reaches altitude 10° 17:04:14 10° 291° (WNW) 2,461 6.4 -10.1°
Maximum altitude 17:09:15 32° 354° (N) 1,428 4.0 -10.7°
Drops below altitude 10° 17:14:18 10° 57° (ENE) 2,475 4.7 -11.3°
Enters shadow 17:14:36 - 58° (ENE) 2,572 4.7 -11.4°
